This is the latest recevied weather packets stored in our database for station/object DM4XI-13. If no packets are shown the sender has not sent any weather packets the latest 1 day(s).
| Time | Temp. | Humidity | Pressure | Rain* | Wind** | Luminosity | Snow |
|---|---|---|---|---|---|---|---|
| 1778077440 | 21.67° C | 44% | 1002.8 hPa | 0 mm | 0.45 m/s, 222° | 373 W/m² | - |
| 1778076707 | 21.67° C | 43% | 1002.8 hPa | 0 mm | 0.89 m/s, 306° | 511 W/m² | - |
| 1778076280 | 21.11° C | 45% | 1003.1 hPa | 0 mm | 0.45 m/s, 241° | 467 W/m² | - |
| 1778076158 | 21.11° C | 45% | 1002.8 hPa | 0 mm | 0.89 m/s, 237° | 313 W/m² | - |
| 1778075853 | 21.11° C | 46% | 1003 hPa | 0 mm | 0.45 m/s, 333° | 302 W/m² | - |
| 1778075792 | 21.11° C | 46% | 1003.1 hPa | 0 mm | 0.45 m/s, 351° | 276 W/m² | - |
| 1778075670 | 21.67° C | 47% | 1003 hPa | 0 mm | 0.89 m/s, 275° | 262 W/m² | - |
| 1778075548 | 21.67° C | 45% | 1003.1 hPa | 0 mm | 0.45 m/s, 244° | 253 W/m² | - |
| 1778075304 | 21.11° C | 46% | 1003.1 hPa | 0 mm | 0.45 m/s, 229° | 265 W/m² | - |
| 1778075182 | 21.11° C | 45% | 1003.2 hPa | 0 mm | 0 m/s | 283 W/m² | - |
| 1778075060 | 21.11° C | 45% | 1003.2 hPa | 0 mm | 0.89 m/s, 288° | 318 W/m² | - |
| 1778074938 | 21.11° C | 47% | 1003.3 hPa | 0 mm | 0.45 m/s, 271° | 321 W/m² | - |
| 1778074877 | 21.11° C | 46% | 1003.3 hPa | 0 mm | 0.89 m/s, 252° | 357 W/m² | - |
| 1778074816 | 21.11° C | 46% | 1003.2 hPa | 0 mm | 0.89 m/s, 262° | 318 W/m² | - |
| 1778074755 | 21.11° C | 46% | 1003.1 hPa | 0 mm | 0.89 m/s, 265° | 314 W/m² | - |
| 1778074694 | 21.11° C | 47% | 1003.1 hPa | 0 mm | 0 m/s | 323 W/m² | - |
| 1778074633 | 21.11° C | 47% | 1003.3 hPa | 0 mm | 0 m/s | 320 W/m² | - |
| 1778074572 | 21.11° C | 45% | 1003.3 hPa | 0 mm | 0.45 m/s, 225° | 295 W/m² | - |
| 1778074511 | 21.11° C | 45% | 1003.1 hPa | 0 mm | 0 m/s | 278 W/m² | - |
| 1778074450 | 21.11° C | 45% | 1003.4 hPa | 0 mm | 0.89 m/s, 286° | 268 W/m² | - |
| 1778074389 | 21.11° C | 47% | 1003.2 hPa | 0 mm | 0.45 m/s, 226° | 266 W/m² | - |
| 1778074328 | 21.11° C | 46% | 1003.4 hPa | 0 mm | 0 m/s | 267 W/m² | - |
| 1778074206 | 21.11° C | 46% | 1003.5 hPa | 0 mm | 0.89 m/s, 275° | 256 W/m² | - |
| 1778073108 | 20.56° C | 48% | 1003.3 hPa | 0 mm | 0.89 m/s, 187° | 235 W/m² | - |
| 1778072985 | 20.56° C | 50% | 1003.4 hPa | 0 mm | 0.89 m/s, 178° | 255 W/m² | - |
* Rain latest hour (hover to see other rain measurements)
** Current wind speed in m/s (hover to see current wind gust speed)